#timestamp,LO_Frequency,Hit,StdDev 
1665630015.5,286046999.9,N
1665630035.3,286047000.5,N
1665630055.1,286047000.0,N
1665630075.9,286047000.4,N
1665630095.7,286047000.6,N
1665630115.6,286047001.0,N
1665630135.4,286047001.0,N
1665630155.3,286046999.4,N
1665630175.1,286046998.6,N
1665630176.0,286046998.6,N
1665630195.8,286046999.3,N
1665630215.7,286046997.1,N
1665630235.5,286046996.9,N
1665630255.5,286046999.2,N
1665630275.3,286046997.4,N
1665630295.1,286046997.4,N
1665630315.9,286046997.3,N
1665630335.7,286046997.0,N
1665630355.6,286046996.9,N
1665630375.4,286046999.6,N
1665630395.2,286046996.9,N
1665630415.1,286046997.4,N
1665630416.0,286046997.4,N
1665630435.8,286046997.8,N
1665630455.7,286046997.0,N
1665630475.5,286046997.3,N
1665630495.3,286046997.9,N
1665630515.2,286046994.9,N
1665630535.0,286046995.3,N
1665630535.9,286046995.3,N
1665630555.8,286046995.6,N
1665630575.6,286046995.4,N
1665630595.4,286046994.9,N
1665630615.3,286046995.4,N
1665630635.1,286046993.4,Y
1665630655.9,286046996.9,P
1665630675.7,286046999.6,N
1665630695.5,286046996.6,N
1665630715.4,286046996.7,N
1665630735.2,286046996.7,N
1665630755.0,286046996.6,Y
1665630755.9,286046996.6,P
1665630775.8,286046999.9,N
1665630795.6,286046999.8,N
1665630815.0,286047000.5,N
1665630815.9,286047000.5,N
1665630835.8,286047000.3,N
1665630855.6,286047000.8,N
1665630875.4,286046998.3,N
1665630895.3,286047001.0,N
1665630915.1,286047001.1,N
1665630935.8,286047001.2,N
1665630955.7,286047000.9,N
1665630975.5,286046998.4,N
1665630995.4,286047000.8,N
1665631015.2,286047000.8,N
1665631035.0,286047000.8,N
1665631035.9,286047000.8,N
1665631055.8,286047000.3,N
1665631075.6,286046998.2,N
1665631095.4,286047001.2,N
1665631115.3,286047000.9,N
1665631135.1,286046999.9,N
1665631155.9,286046999.9,N
1665631175.7,286047000.2,N
1665631195.5,286047001.0,N
1665631215.4,286047001.0,N
1665631235.2,286047000.0,N
1665631255.0,286047001.0,N
1665631255.9,286047001.0,N
1665631275.8,286047000.9,N
1665631295.6,286046998.2,N
1665631315.5,286046998.4,N
1665631335.3,286047000.3,N
1665631355.1,286047000.0,N
1665631375.9,286047000.8,N
1665631395.7,286047001.2,N
1665631415.5,286047001.2,N
1665631435.4,286047000.7,N
1665631455.2,286046998.7,N
1665631475.1,286046998.8,N
1665631476.0,286046998.8,N
1665631495.8,286046998.4,N
1665631515.6,286046997.1,N
1665631535.5,286046997.2,N
1665631555.3,286046996.8,N
1665631575.1,286046997.9,N
1665631595.9,286046997.5,N
1665631615.7,286046997.5,N
1665631635.6,286046997.4,N
1665631655.4,286046997.4,N
1665631675.2,286046997.5,N
1665631695.1,286046997.8,N
1665631696.0,286046997.8,N
1665631715.8,286046997.3,N
1665631735.7,286046997.9,N
1665631755.5,286046999.1,N
1665631775.3,286046996.5,N
1665631795.2,286046995.2,Y
1665631815.0,286046997.8,P
1665631815.9,286046997.8,P
1665631835.8,286046996.1,P
1665631855.6,286046998.0,N
1665631875.4,286046995.0,Y
1665631895.3,286047001.2,P
1665631915.1,286047001.0,N
1665631935.9,286046998.6,N
1665631955.7,286047000.7,N
1665631975.5,286047002.5,N
1665631995.4,286047002.0,N
1665632015.2,286046999.7,N
1665632035.0,286047000.0,N
1665632035.9,286047000.0,N
1665632055.8,286046998.7,N
1665632075.6,286047000.6,N
1665632095.5,286046998.9,N
1665632115.3,286046998.7,N
1665632135.1,286046999.0,N
1665632155.9,286047000.8,N
1665632175.7,286047000.9,N
1665632195.6,286047002.7,N
1665632215.4,286047001.3,N
1665632235.2,286046999.8,N
1665632255.1,286046998.2,N
1665632256.0,286046998.2,N
1665632275.8,286047000.5,N
1665632295.6,286047000.4,N
1665632315.5,286047000.1,N
1665632335.3,286047000.1,N
1665632355.2,286047001.6,N
1665632375.9,286047001.6,N
1665632395.7,286047002.7,N
1665632415.6,286047000.4,N
1665632435.4,286047000.0,N
1665632455.2,286047002.5,N
1665632475.1,286047003.2,N
1665632476.0,286047003.2,N
1665632495.8,286047003.6,N
1665632515.7,286047005.4,Y
1665632535.5,286047002.9,P
1665632555.3,286047003.1,N
1665632575.2,286047005.5,P
1665632595.0,286047005.1,Y
1665632595.9,286047005.1,P
1665632615.8,286047003.5,P
1665632635.6,286047001.8,N
1665632655.4,286047002.8,N
1665632675.3,286047000.9,N
1665632695.1,286047000.1,N
1665632715.8,286047002.7,N
1665632735.7,286047001.5,N
1665632755.5,286047001.3,N
1665632775.4,286047002.2,N
1665632795.2,286047002.7,N
1665632815.0,286047002.2,N
1665632815.9,286047002.2,N
1665632835.8,286047000.6,N
1665632855.6,286047002.7,N
1665632875.5,286047000.8,N
1665632895.3,286047000.8,N
1665632915.1,286047001.2,N
1665632935.9,286047002.5,N
1665632955.7,286046999.8,N
1665632975.5,286047000.0,N
1665632995.4,286046999.9,N
1665633015.2,286047002.8,N
1665633035.1,286046999.8,N
1665633036.0,286046999.8,N
1665633055.8,286046998.2,N
1665633075.6,286046998.6,N
1665633095.5,286046998.4,N
1665633115.3,286046999.1,N
1665633135.1,286046996.5,N
1665633155.9,286047000.7,N
1665633175.7,286047000.7,N
1665633195.6,286046999.9,N
1665633215.4,286047002.5,N
1665633235.2,286047000.1,N
1665633255.1,286047002.5,N
1665633256.0,286047002.5,N
1665633275.8,286047000.5,N
1665633295.6,286047000.4,N
1665633315.5,286046999.7,N
1665633335.3,286047000.3,N
1665633355.2,286046998.6,N
1665633375.9,286046999.3,N
1665633395.7,286046999.6,N
1665633415.6,286046998.3,N
1665633435.4,286047000.5,N
1665633455.2,286046999.9,N
1665633475.1,286046998.3,N
1665633476.0,286046998.3,N
1665633495.8,286046999.5,N
1665633515.7,286046999.3,N
1665633535.5,286046996.8,N
1665633555.4,286046997.0,N
1665633575.2,286047000.8,N
1665633595.0,286047000.6,N
1665633595.9,286047000.6,N
